Powrót do katalogu

DELTA 1 DEB

AktywnySSO
NORAD 12534·DEBRIS·🇺🇸 United States

Wystrzelony Jul 29, 1976 z Vandenberg Space Force Base

Loading…

Następne Przeloty (najbliższe 24 godziny)

TLE

ŚwieżeSource: Space-Track

Epoka: Sep 14, 2026, 11:21 UTC

1 12534U 76077DP  26257.47355564 -.00000152  00000-0 -83311-3 0  9992
2 12534 102.0191 323.5940 0059184 270.6896 221.8381 12.37030301180297

Śledź DELTA 1 DEB w czasie rzeczywistym z AllMySat

Download on the App Store